Location: Navajo
(48.7922°N, 105.0603°W)
Time: 07:40:34
(UTC+00:00)

DUCHIFAT 1 - Pass Details

Date: 05 July 2022
Orbit: 580 x 596 km, 98.0° (Epoch: 07 August)

Event Time Altitude Azimuth Distance (km) Brightness Sun altitude
Rises 09:20:55 0° 18° (NNE) 2,847 ? -12.3°
Reaches altitude 10° 09:23:09 10° 23° (NNE) 1,942 ? -12.1°
Maximum altitude 09:27:16 51° 100° (E) 756 ? -11.7°
Enters shadow 09:31:21 10° 177° (S) 1,930 ? -11.3°
